ARG7407 LEMD-SAEZ

Flight info

Callsign ARG7407
Flight time N/A
Altitude FL130
Route CCS6L CCS N975 ELVAR UN975 SNT UN741 NELSO N741 EDUMO UN741 PAPIX PAPI7A
Aircraft B789/H-SDE1E2E3FGHIJ2J3J4J5M1RWXY/LB1D1

Departure

Time 2026-05-05 02:31
Airport Adolfo Suárez Madrid–Barajas Airport (LEMD)

Arrival

Time N/A
Airport Ezeiza International Airport - Ministro Pistarini (SAEZ)
Time Latitude Longitude Altitude Speed Heading
2026-05-05 01:57 40.46228 -3.56935 1976 ft 0 kts 311°
2026-05-05 02:13 40.46214 -3.56913 1981 ft 4 kts 311°
2026-05-05 02:13 40.46198 -3.56891 1979 ft 4 kts 324°
2026-05-05 02:13 40.46178 -3.56884 1978 ft 4 kts 32°
2026-05-05 02:14 40.46159 -3.56905 1980 ft 2 kts 41°
2026-05-05 02:14 40.46158 -3.56906 1980 ft 0 kts 41°
2026-05-05 02:18 40.46165 -3.56898 1980 ft 2 kts 41°
2026-05-05 02:19 40.46179 -3.56882 1978 ft 3 kts 41°
2026-05-05 02:19 40.46202 -3.56859 1980 ft 5 kts 36°
2026-05-05 02:19 40.46231 -3.56834 1979 ft 6 kts 32°
2026-05-05 02:19 40.46266 -3.56806 1980 ft 6 kts 31°
2026-05-05 02:20 40.46306 -3.56780 1979 ft 7 kts 25°
2026-05-05 02:20 40.46350 -3.56752 1980 ft 7 kts 25°
2026-05-05 02:20 40.46400 -3.56730 1979 ft 8 kts 13°
2026-05-05 02:20 40.46454 -3.56721 1981 ft 8 kts
2026-05-05 02:21 40.46512 -3.56715 1980 ft 9 kts
2026-05-05 02:21 40.46573 -3.56710 1982 ft 9 kts
2026-05-05 02:21 40.46636 -3.56705 1978 ft 9 kts
2026-05-05 02:21 40.46702 -3.56701 1982 ft 10 kts
2026-05-05 02:22 40.46771 -3.56693 1979 ft 9 kts 16°
2026-05-05 02:22 40.46800 -3.56637 1984 ft 7 kts 82°
2026-05-05 02:22 40.46813 -3.56575 1979 ft 7 kts 52°
2026-05-05 02:22 40.46848 -3.56554 1980 ft 5 kts
2026-05-05 02:23 40.46887 -3.56551 1981 ft 6 kts
2026-05-05 02:23 40.46925 -3.56549 1981 ft 5 kts
2026-05-05 02:23 40.46961 -3.56548 1983 ft 5 kts
2026-05-05 02:23 40.46995 -3.56549 1985 ft 5 kts 357°
2026-05-05 02:24 40.47028 -3.56555 1985 ft 5 kts 348°
2026-05-05 02:24 40.47065 -3.56570 1986 ft 6 kts 338°
2026-05-05 02:24 40.47112 -3.56600 1987 ft 10 kts 328°
2026-05-05 02:24 40.47177 -3.56664 1988 ft 14 kts 322°
2026-05-05 02:25 40.47260 -3.56746 1994 ft 16 kts 322°
2026-05-05 02:25 40.47360 -3.56847 1996 ft 20 kts 323°
2026-05-05 02:25 40.47479 -3.56967 1997 ft 23 kts 322°
2026-05-05 02:25 40.47615 -3.57104 1998 ft 26 kts 322°
2026-05-05 02:26 40.47753 -3.57242 2002 ft 24 kts 322°
2026-05-05 02:26 40.47884 -3.57375 2006 ft 23 kts 322°
2026-05-05 02:26 40.48020 -3.57512 2004 ft 26 kts 322°
2026-05-05 02:26 40.48168 -3.57661 2000 ft 28 kts 322°
2026-05-05 02:27 40.48330 -3.57827 1997 ft 31 kts 322°
2026-05-05 02:27 40.48498 -3.57974 2001 ft 26 kts 330°
2026-05-05 02:27 40.48653 -3.58053 2005 ft 24 kts 359°
2026-05-05 02:27 40.48763 -3.57965 2002 ft 18 kts 88°
2026-05-05 02:28 40.48761 -3.57778 1998 ft 23 kts 91°
2026-05-05 02:28 40.48783 -3.57630 1996 ft 9 kts 27°
2026-05-05 02:28 40.48847 -3.57614 1995 ft 10 kts
2026-05-05 02:28 40.48927 -3.57616 1995 ft 13 kts 358°
2026-05-05 02:29 40.49022 -3.57619 1995 ft 15 kts 359°
2026-05-05 02:29 40.49132 -3.57621 1994 ft 17 kts
2026-05-05 02:29 40.49207 -3.57521 1994 ft 18 kts 64°
2026-05-05 02:29 40.49308 -3.57451 1988 ft 15 kts
2026-05-05 02:30 40.49352 -3.57452 1988 ft 13 kts 359°
2026-05-05 02:30 40.49628 -3.57456 1990 ft 68 kts 359°
2026-05-05 02:30 40.50297 -3.57458 1997 ft 123 kts 360°
2026-05-05 02:30 40.51310 -3.57469 2000 ft 168 kts 360°
2026-05-05 02:31 40.52586 -3.57453 2175 ft 192 kts
2026-05-05 02:31 40.53930 -3.57333 2651 ft 206 kts 358°
2026-05-05 02:31 40.55415 -3.57589 3190 ft 221 kts 343°
2026-05-05 02:31 40.56627 -3.58728 4173 ft 209 kts 309°
2026-05-05 02:32 40.57285 -3.60428 4848 ft 216 kts 290°
2026-05-05 02:32 40.58128 -3.62170 4910 ft 248 kts 325°
2026-05-05 02:32 40.59612 -3.63246 5907 ft 233 kts 329°
2026-05-05 02:32 40.60965 -3.64396 6696 ft 236 kts 320°
2026-05-05 02:33 40.62231 -3.65805 7318 ft 240 kts 315°
2026-05-05 02:33 40.63419 -3.67336 8004 ft 241 kts 301°
2026-05-05 02:33 40.63995 -3.69411 8383 ft 252 kts 276°
2026-05-05 02:33 40.64013 -3.71803 8658 ft 269 kts 267°
2026-05-05 02:34 40.63953 -3.74248 9551 ft 268 kts 266°
2026-05-05 02:34 40.63905 -3.76717 10238 ft 274 kts 267°
2026-05-05 02:34 40.63868 -3.79326 10395 ft 299 kts 267°
2026-05-05 02:34 40.63828 -3.82169 10526 ft 323 kts 267°
2026-05-05 02:35 40.63783 -3.85116 11323 ft 322 kts 268°
2026-05-05 02:35 40.63736 -3.88068 12098 ft 324 kts 268°
2026-05-05 02:35 40.63687 -3.91041 12832 ft 327 kts 268°
2026-05-05 02:35 40.63636 -3.94083 13019 ft 338 kts 268°
2026-05-05 02:36 40.63585 -3.97150 13024 ft 333 kts 268°
2026-05-05 02:36 40.63534 -4.00183 13418 ft 330 kts 268°
2026-05-05 02:36 40.63482 -4.03184 14266 ft 329 kts 268°
2026-05-05 02:36 40.63428 -4.06200 14922 ft 331 kts 268°
2026-05-05 02:37 40.63374 -4.09233 15585 ft 333 kts 267°
2026-05-05 02:37 40.63319 -4.12284 16262 ft 334 kts 267°
2026-05-05 02:37 40.63262 -4.15350 16866 ft 337 kts 267°
2026-05-05 02:37 40.63205 -4.18435 17526 ft 339 kts 267°
2026-05-05 02:38 40.63146 -4.21544 18172 ft 341 kts 267°
2026-05-05 02:38 40.63086 -4.24667 18742 ft 343 kts 267°
2026-05-05 02:38 40.63026 -4.27801 19320 ft 344 kts 267°
2026-05-05 02:38 40.62964 -4.30945 19875 ft 345 kts 267°
2026-05-05 02:39 40.62900 -4.34096 20443 ft 345 kts 267°
2026-05-05 02:39 40.62836 -4.37251 20988 ft 346 kts 267°
2026-05-05 02:39 40.62771 -4.40416 21511 ft 347 kts 267°
2026-05-05 02:39 40.62705 -4.43594 22057 ft 348 kts 267°
2026-05-05 02:40 40.62639 -4.46777 22551 ft 349 kts 267°
2026-05-05 02:40 40.62544 -4.49972 23026 ft 350 kts 263°
2026-05-05 02:40 40.62117 -4.53114 23523 ft 351 kts 255°
2026-05-05 02:40 40.61316 -4.56146 23937 ft 353 kts 247°
2026-05-05 02:41 40.60148 -4.58990 24332 ft 356 kts 239°
2026-05-05 02:41 40.58688 -4.61629 24688 ft 359 kts 237°
2026-05-05 02:41 40.57203 -4.64262 25091 ft 359 kts 237°
2026-05-05 02:41 40.55713 -4.66890 25451 ft 360 kts 237°
2026-05-05 02:42 40.54213 -4.69523 25810 ft 361 kts 237°
2026-05-05 02:42 40.52708 -4.72164 26170 ft 362 kts 238°
2026-05-05 02:42 40.51199 -4.74817 26527 ft 363 kts 238°
2026-05-05 02:42 40.49685 -4.77474 26890 ft 364 kts 238°
2026-05-05 02:43 40.48167 -4.80134 27236 ft 365 kts 238°
2026-05-05 02:43 40.46644 -4.82801 27575 ft 367 kts 238°
2026-05-05 02:43 40.45114 -4.85478 27920 ft 368 kts 238°
2026-05-05 02:43 40.43581 -4.88159 28274 ft 369 kts 238°
2026-05-05 02:44 40.42040 -4.90850 28581 ft 370 kts 238°
2026-05-05 02:44 40.40494 -4.93548 28892 ft 371 kts 238°
2026-05-05 02:44 40.38943 -4.96252 29217 ft 372 kts 238°
2026-05-05 02:44 40.37388 -4.98960 29558 ft 373 kts 238°
2026-05-05 02:45 40.35827 -5.01677 29854 ft 374 kts 238°
2026-05-05 02:45 40.34258 -5.04404 30140 ft 376 kts 238°
2026-05-05 02:45 40.32687 -5.07134 30358 ft 377 kts 238°
2026-05-05 02:45 40.31104 -5.09884 30577 ft 379 kts 238°
2026-05-05 02:46 40.29512 -5.12643 30781 ft 381 kts 238°
2026-05-05 02:46 40.27913 -5.15414 30990 ft 383 kts 238°
2026-05-05 02:46 40.26308 -5.18191 31211 ft 383 kts 238°
2026-05-05 02:46 40.24694 -5.20985 31346 ft 388 kts 238°
2026-05-05 02:47 40.23067 -5.23797 31588 ft 389 kts 238°
2026-05-05 02:47 40.21433 -5.26619 31785 ft 391 kts 238°
2026-05-05 02:47 40.19786 -5.29459 31991 ft 393 kts 238°
2026-05-05 02:47 40.18132 -5.32310 32174 ft 395 kts 238°
2026-05-05 02:48 40.16471 -5.35171 32377 ft 397 kts 238°
2026-05-05 02:48 40.14801 -5.38042 32539 ft 399 kts 238°
2026-05-05 02:48 40.13125 -5.40924 32728 ft 400 kts 238°
2026-05-05 02:48 40.11441 -5.43816 32893 ft 401 kts 238°
2026-05-05 02:49 40.09751 -5.46715 33065 ft 403 kts 238°
2026-05-05 02:49 40.08052 -5.49627 33233 ft 404 kts 238°
2026-05-05 02:49 40.06348 -5.52545 33397 ft 406 kts 238°
2026-05-05 02:49 40.04637 -5.55472 33544 ft 407 kts 238°
2026-05-05 02:50 40.02920 -5.58407 33699 ft 409 kts 238°
2026-05-05 02:50 40.01193 -5.61356 33856 ft 410 kts 237°
2026-05-05 02:50 39.99459 -5.64314 33978 ft 412 kts 237°
2026-05-05 02:50 39.97719 -5.67279 34119 ft 413 kts 237°
2026-05-05 02:51 39.95974 -5.70251 34263 ft 414 kts 237°
2026-05-05 02:51 39.94225 -5.73227 34403 ft 415 kts 237°
2026-05-05 02:51 39.92472 -5.76205 34554 ft 415 kts 237°
2026-05-05 02:52 39.88948 -5.82188 34760 ft 419 kts 237°
2026-05-05 02:52 39.87172 -5.85197 34881 ft 420 kts 237°
2026-05-05 02:52 39.85393 -5.88209 34969 ft 422 kts 237°
2026-05-05 02:53 39.81803 -5.94280 35041 ft 426 kts 237°
2026-05-05 02:53 39.78195 -6.00364 35044 ft 424 kts 237°
2026-05-05 02:54 39.74603 -6.06416 35048 ft 424 kts 237°
2026-05-05 02:54 39.71000 -6.12473 35045 ft 425 kts 237°
2026-05-05 02:55 39.67388 -6.18531 35046 ft 425 kts 237°
2026-05-05 02:55 39.63769 -6.24592 35060 ft 426 kts 237°
2026-05-05 02:56 39.60138 -6.30660 35060 ft 427 kts 237°
2026-05-05 02:56 39.56501 -6.36726 35058 ft 427 kts 237°
2026-05-05 02:57 39.52908 -6.42819 35064 ft 424 kts 242°
2026-05-05 02:57 39.50153 -6.49511 35071 ft 423 kts 246°
2026-05-05 02:58 39.47532 -6.56311 35074 ft 423 kts 246°
2026-05-05 02:58 39.44928 -6.63117 35074 ft 423 kts 246°
2026-05-05 02:59 39.42304 -6.69928 35074 ft 424 kts 246°
2026-05-05 02:59 39.39678 -6.76743 35073 ft 425 kts 246°
2026-05-05 03:00 39.37042 -6.83559 35071 ft 424 kts 246°
2026-05-05 03:00 39.34407 -6.90364 35066 ft 425 kts 246°
2026-05-05 03:01 39.31761 -6.97178 35067 ft 425 kts 246°
2026-05-05 03:01 39.29110 -7.03994 35067 ft 426 kts 246°
2026-05-05 03:02 39.26454 -7.10802 35067 ft 425 kts 246°
2026-05-05 03:02 39.23803 -7.17586 35071 ft 425 kts 246°
2026-05-05 03:03 39.21138 -7.24389 35076 ft 426 kts 246°
2026-05-05 03:03 39.18460 -7.31192 35079 ft 427 kts 246°
2026-05-05 03:04 39.15770 -7.38014 35089 ft 428 kts 246°
2026-05-05 03:04 39.13071 -7.44842 35091 ft 429 kts 246°
2026-05-05 03:05 39.10369 -7.51664 35089 ft 428 kts 246°
2026-05-05 03:05 39.07671 -7.58485 35089 ft 429 kts 246°
2026-05-05 03:06 39.04970 -7.65296 35088 ft 428 kts 246°
2026-05-05 03:06 39.02267 -7.72097 35087 ft 428 kts 246°
2026-05-05 03:07 38.99557 -7.78900 35087 ft 428 kts 246°
2026-05-05 03:07 38.96842 -7.85700 35087 ft 428 kts 246°
2026-05-05 03:08 38.94125 -7.92490 35091 ft 428 kts 246°
2026-05-05 03:08 38.91404 -7.99266 35090 ft 428 kts 246°
2026-05-05 03:09 38.88685 -8.06025 35093 ft 427 kts 246°
2026-05-05 03:09 38.85964 -8.12775 35093 ft 427 kts 246°
2026-05-05 03:10 38.83238 -8.19521 35095 ft 427 kts 246°
2026-05-05 03:10 38.80514 -8.26247 35094 ft 426 kts 246°
2026-05-05 03:11 38.77784 -8.32973 35107 ft 426 kts 246°
2026-05-05 03:11 38.75054 -8.39686 35108 ft 426 kts 246°
2026-05-05 03:12 38.72319 -8.46397 35104 ft 426 kts 246°
2026-05-05 03:12 38.69578 -8.53105 35098 ft 426 kts 246°
2026-05-05 03:13 38.66834 -8.59808 35103 ft 426 kts 246°
2026-05-05 03:13 38.64088 -8.66488 35101 ft 425 kts 246°
2026-05-05 03:14 38.61330 -8.73152 35101 ft 424 kts 246°
2026-05-05 03:14 38.58579 -8.79803 35101 ft 424 kts 246°
2026-05-05 03:15 38.55823 -8.86444 35104 ft 423 kts 246°
2026-05-05 03:15 38.53066 -8.93077 35100 ft 423 kts 246°
2026-05-05 03:16 38.50303 -8.99708 35099 ft 424 kts 246°
2026-05-05 03:16 38.47535 -9.06337 35101 ft 424 kts 246°
2026-05-05 03:17 38.44764 -9.12960 35105 ft 424 kts 246°
2026-05-05 03:17 38.41771 -9.19438 35123 ft 427 kts 237°
2026-05-05 03:18 38.37939 -9.25282 35117 ft 431 kts 235°
2026-05-05 03:18 38.34071 -9.31097 35115 ft 431 kts 235°
2026-05-05 03:19 38.28269 -9.39777 35106 ft 429 kts 235°
2026-05-05 03:19 38.24401 -9.45554 35106 ft 430 kts 235°
2026-05-05 03:20 38.20525 -9.51331 35112 ft 430 kts 235°
2026-05-05 03:20 38.16646 -9.57103 35107 ft 431 kts 235°
2026-05-05 03:21 38.12759 -9.62875 35108 ft 431 kts 235°
2026-05-05 03:21 38.08872 -9.68639 35108 ft 431 kts 235°
2026-05-05 03:22 38.04980 -9.74398 35107 ft 430 kts 235°
2026-05-05 03:22 38.01089 -9.80146 35110 ft 430 kts 234°
2026-05-05 03:23 37.97200 -9.85874 35110 ft 430 kts 234°
2026-05-05 03:23 37.93291 -9.91605 35113 ft 431 kts 234°
2026-05-05 03:24 37.89375 -9.97346 35110 ft 431 kts 234°
2026-05-05 03:24 37.85452 -10.03083 35120 ft 433 kts 234°
2026-05-05 03:25 37.81519 -10.08825 35122 ft 433 kts 234°
2026-05-05 03:25 37.77576 -10.14571 35119 ft 434 kts 234°
2026-05-05 03:26 37.73621 -10.20326 35112 ft 435 kts 234°
2026-05-05 03:26 37.69664 -10.26072 35115 ft 435 kts 234°
2026-05-05 03:27 37.65695 -10.31826 35122 ft 436 kts 234°
2026-05-05 03:27 37.61717 -10.37581 35125 ft 436 kts 234°
2026-05-05 03:28 37.57730 -10.43341 35121 ft 437 kts 234°
2026-05-05 03:28 37.53737 -10.49099 35122 ft 437 kts 234°
2026-05-05 03:29 37.49743 -10.54848 35125 ft 437 kts 234°
2026-05-05 03:29 37.45738 -10.60603 35130 ft 438 kts 233°
2026-05-05 03:30 37.41731 -10.66350 35121 ft 437 kts 233°
2026-05-05 03:30 37.37728 -10.72082 35130 ft 437 kts 233°
2026-05-05 03:31 37.33723 -10.77806 35126 ft 437 kts 233°
2026-05-05 03:31 37.29708 -10.83537 35139 ft 438 kts 233°
2026-05-05 03:32 37.25682 -10.89269 35133 ft 439 kts 233°
2026-05-05 03:32 37.21650 -10.95002 35134 ft 439 kts 233°
2026-05-05 03:33 37.17613 -11.00732 35130 ft 440 kts 233°
2026-05-05 03:33 37.13562 -11.06471 35126 ft 440 kts 233°
2026-05-05 03:34 37.09512 -11.12199 35143 ft 440 kts 233°
2026-05-05 03:34 37.05458 -11.17922 35142 ft 441 kts 233°
2026-05-05 03:35 37.01393 -11.23652 35138 ft 441 kts 233°
2026-05-05 03:35 36.97326 -11.29374 35135 ft 441 kts 233°
2026-05-05 03:36 36.93254 -11.35094 35135 ft 441 kts 232°
2026-05-05 03:36 36.89174 -11.40814 35135 ft 442 kts 232°
2026-05-05 03:37 36.85084 -11.46537 35133 ft 443 kts 232°
2026-05-05 03:37 36.80985 -11.52265 35135 ft 444 kts 232°
2026-05-05 03:38 36.76871 -11.58003 35134 ft 445 kts 232°
2026-05-05 03:38 36.72747 -11.63745 35138 ft 446 kts 232°
2026-05-05 03:39 36.68611 -11.69493 35138 ft 447 kts 232°
2026-05-05 03:39 36.64468 -11.75241 35135 ft 447 kts 232°
2026-05-05 03:40 36.60317 -11.80990 35138 ft 448 kts 232°
2026-05-05 03:40 36.56158 -11.86741 35141 ft 448 kts 232°
2026-05-05 03:41 36.51990 -11.92494 35139 ft 449 kts 232°
2026-05-05 03:41 36.47815 -11.98246 35132 ft 449 kts 232°
2026-05-05 03:42 36.43641 -12.03987 35136 ft 449 kts 232°
2026-05-05 03:42 36.39459 -12.09729 35137 ft 449 kts 232°
2026-05-05 03:43 36.35276 -12.15463 35132 ft 449 kts 231°
2026-05-05 03:43 36.31085 -12.21197 35137 ft 450 kts 231°
2026-05-05 03:44 36.26885 -12.26934 35137 ft 450 kts 231°
2026-05-05 03:44 36.22690 -12.32654 35138 ft 449 kts 231°
2026-05-05 03:45 36.18492 -12.38369 35136 ft 450 kts 231°
2026-05-05 03:45 36.14286 -12.44084 35138 ft 450 kts 231°
2026-05-05 03:46 36.10080 -12.49791 35139 ft 450 kts 231°
2026-05-05 03:46 36.05866 -12.55497 35136 ft 450 kts 231°
2026-05-05 03:47 36.01645 -12.61204 35140 ft 451 kts 231°
2026-05-05 03:47 35.97414 -12.66915 35138 ft 452 kts 231°
2026-05-05 03:48 35.93181 -12.72619 35142 ft 451 kts 230°
2026-05-05 03:48 35.88944 -12.78318 35138 ft 452 kts 230°
2026-05-05 03:49 35.84701 -12.84016 35136 ft 452 kts 230°
2026-05-05 03:49 35.80452 -12.89712 35138 ft 452 kts 230°
2026-05-05 03:50 35.76201 -12.95402 35137 ft 452 kts 230°
2026-05-05 03:50 35.71941 -13.01092 35135 ft 453 kts 230°
2026-05-05 03:51 35.67679 -13.06778 35138 ft 453 kts 230°
2026-05-05 03:51 35.63411 -13.12460 35143 ft 454 kts 230°
2026-05-05 03:52 35.59138 -13.18140 35139 ft 453 kts 230°
2026-05-05 03:52 35.54862 -13.23815 35140 ft 453 kts 230°
2026-05-05 03:53 35.50587 -13.29477 35141 ft 453 kts 230°
2026-05-05 03:53 35.46313 -13.35131 35138 ft 453 kts 230°
2026-05-05 03:54 35.42035 -13.40778 35134 ft 453 kts 230°
2026-05-05 03:54 35.37758 -13.46417 35134 ft 453 kts 229°
2026-05-05 03:55 35.33474 -13.52054 35136 ft 453 kts 229°
2026-05-05 03:55 35.29187 -13.57686 35138 ft 453 kts 229°
2026-05-05 03:56 35.24900 -13.63308 35138 ft 453 kts 229°
2026-05-05 03:56 35.20610 -13.68925 35136 ft 453 kts 229°
2026-05-05 03:57 35.16321 -13.74532 35138 ft 452 kts 229°
2026-05-05 03:57 35.12022 -13.80142 35138 ft 454 kts 229°
2026-05-05 03:58 35.07716 -13.85752 35138 ft 454 kts 229°
2026-05-05 03:58 35.03408 -13.91356 35135 ft 454 kts 229°
2026-05-05 03:59 34.99092 -13.96960 35137 ft 454 kts 229°
2026-05-05 03:59 34.94770 -14.02563 35140 ft 454 kts 229°
2026-05-05 04:00 34.90448 -14.08157 35137 ft 454 kts 229°
2026-05-05 04:00 34.86126 -14.13741 35132 ft 454 kts 229°
2026-05-05 04:01 34.81799 -14.19324 35135 ft 455 kts 229°
2026-05-05 04:01 34.77467 -14.24903 35135 ft 454 kts 229°
2026-05-05 04:02 34.73131 -14.30478 35133 ft 455 kts 229°
2026-05-05 04:02 34.68783 -14.36060 35142 ft 456 kts 229°
2026-05-05 04:03 34.64434 -14.41632 35136 ft 455 kts 229°
2026-05-05 04:03 34.60086 -14.47196 35139 ft 455 kts 228°
2026-05-05 04:04 34.55729 -14.52763 35141 ft 456 kts 228°
2026-05-05 04:04 34.51378 -14.58311 35142 ft 455 kts 228°
2026-05-05 04:05 34.47025 -14.63854 35138 ft 455 kts 228°
2026-05-05 04:05 34.42663 -14.69399 35138 ft 455 kts 228°
2026-05-05 04:06 34.38302 -14.74935 35137 ft 455 kts 228°
2026-05-05 04:06 34.33936 -14.80468 35134 ft 455 kts 228°
2026-05-05 04:07 34.29573 -14.85988 35128 ft 455 kts 228°
2026-05-05 04:07 34.25200 -14.91512 35127 ft 456 kts 228°
2026-05-05 04:08 34.20834 -14.97018 35123 ft 454 kts 228°
2026-05-05 04:08 34.16455 -15.02532 35126 ft 456 kts 228°
2026-05-05 04:09 34.12070 -15.08043 35123 ft 456 kts 228°
2026-05-05 04:09 34.07686 -15.13546 35121 ft 456 kts 228°
2026-05-05 04:10 34.03301 -15.19040 35128 ft 456 kts 228°
2026-05-05 04:10 33.98913 -15.24529 35120 ft 456 kts 228°
2026-05-05 04:11 33.94522 -15.30014 35125 ft 456 kts 228°
2026-05-05 04:11 33.90118 -15.35506 35126 ft 457 kts 228°
2026-05-05 04:12 33.85714 -15.40989 35125 ft 456 kts 228°
2026-05-05 04:12 33.81307 -15.46469 35117 ft 457 kts 228°
2026-05-05 04:13 33.76895 -15.51944 35119 ft 457 kts 228°
2026-05-05 04:13 33.72479 -15.57416 35113 ft 457 kts 228°
2026-05-05 04:14 33.68067 -15.62876 35109 ft 457 kts 228°
2026-05-05 04:14 33.63639 -15.68345 35108 ft 458 kts 228°
2026-05-05 04:15 33.59207 -15.73812 35110 ft 458 kts 227°
2026-05-05 04:15 33.54769 -15.79276 35102 ft 459 kts 227°
2026-05-05 04:16 33.50322 -15.84741 35104 ft 459 kts 227°
2026-05-05 04:16 33.45869 -15.90204 35100 ft 459 kts 227°
2026-05-05 04:17 33.41429 -15.95643 35090 ft 457 kts 227°
2026-05-05 04:17 33.36990 -16.01073 35088 ft 458 kts 227°
2026-05-05 04:18 33.32532 -16.06516 35095 ft 459 kts 227°
2026-05-05 04:18 33.28065 -16.11962 35082 ft 459 kts 227°
2026-05-05 04:19 33.23599 -16.17399 35081 ft 459 kts 227°
2026-05-05 04:19 33.19139 -16.22820 35275 ft 457 kts 227°
2026-05-05 04:20 33.16922 -16.25510 35537 ft 454 kts 227°
2026-05-05 04:20 33.14713 -16.28192 35717 ft 454 kts 227°
2026-05-05 04:20 33.12497 -16.30879 35852 ft 455 kts 227°
2026-05-05 04:20 33.10281 -16.33561 36016 ft 455 kts 226°
2026-05-05 04:21 33.05210 -16.38136 36082 ft 462 kts 217°